Overview Statistics Trail Chart Weather Telemetry Raw packets
 

This is the latest recevied weather packets stored in our database for station/object N5TDX. If no packets are shown the sender has not sent any weather packets the latest 10 day(s).

<< 29 30 31 32 33 34 35 >>
Time Temp. Humidity Pressure Rain* Wind** Luminosity Snow
1788464697 33.33° C 58% 1008.9 hPa 0 mm - - -
1788464392 32.78° C 58% 1009 hPa 0 mm - - -
1788464089 32.78° C 59% 1009.3 hPa 0 mm - - -
1788463784 32.78° C 58% 1009.4 hPa 0 mm - - -
1788463481 32.22° C 60% 1009 hPa 0 mm - - -
1788463181 32.22° C 60% 1009.3 hPa 0 mm - - -
1788462877 32.22° C 60% 1009.3 hPa 0 mm - - -
1788462577 32.22° C 60% 1009.4 hPa 0 mm - - -
1788462277 32.22° C 60% 1009.5 hPa 0 mm - - -
1788461971 32.78° C 58% 1009.5 hPa 0 mm - - -
1788461667 32.78° C 58% 1009.7 hPa 0 mm - - -
1788461367 32.78° C 57% 1009.6 hPa 0 mm - - -
1788461064 33.33° C 57% 1009.9 hPa 0 mm - - -
1788460764 33.33° C 56% 1009.7 hPa 0 mm - - -
1788460459 33.33° C 55% 1010 hPa 0 mm - - -
1788460158 33.33° C 55% 1010 hPa 0 mm - - -
1788459856 33.89° C 54% 1010 hPa 0 mm - - -
1788459552 33.89° C 54% 1010.1 hPa 0 mm - - -
1788459247 34.44° C 54% 1010.2 hPa 0 mm - - -
1788458947 34.44° C 53% 1010.2 hPa 0 mm - - -
1788458647 34.44° C 52% 1010.3 hPa 0 mm - - -
1788458341 33.89° C 55% 1010.2 hPa 0 mm - - -
1788458041 33.33° C 55% 1010.3 hPa 0 mm - - -
1788457736 33.33° C 55% 1010.2 hPa 0 mm - - -
1788457431 33.33° C 56% 1010.2 hPa 0 mm - - -

* Rain latest hour (hover to see other rain measurements)
** Current wind speed in m/s (hover to see current wind gust speed)